Home > Weather > Damascus > Past weeks

Flag for Syria Weather for the Past 2 Weeks in Damascus, Syria

Now
46 °F

Clear.


Feels Like: 44 °F
Forecast: 30 / 59 °F
Wind: 5 mph from Southwest

Location: Damascus Int. Airport

Current Time: Feb 10, 2016 at 8:02:11 PM

Latest Report: Feb 10, 2016 at 7:00 PM


Visibility: 10 mi

Pressure: 30.12 "Hg (27.70 "Hg at 689m altitude)

Humidity: 53%

Dew point: 30 °F

Location of DamascusLocation

Historic Weather in Damascus — Graph

°F

Damascus Temperature Yesterday

Maximum temperature yesterday: 57 °F (at 3:00 PM)
Minimum temperature yesterday: 37 °F (at 2:00 AM)
Average temperature yesterday: 44 °F

High & Low Weather Summary for the Past Weeks

 TemperatureHumidityPressure
High66 °F (Feb 5, 2:00 PM)100% (Feb 2, 3:00 AM)30.45 "Hg (Feb 2, 3:00 AM)
Low14 °F (Jan 28, 7:00 AM)0% (Feb 4, 10:00 PM)29.83 "Hg (Feb 6, 2:00 PM)
Average43 °F56%30.21 "Hg
* Reported Jan 26 7:00 PM — Feb 10 7:00 PM, Damascus, Weather by CustomWeather, © 2016

Note: Actual official high and low records may vary slightly from our data, if they occured in-between our weather recording intervals... More about our weather records

Advertising

Damascus Weather History for the Previous 24 Hours

 ConditionsComfort  
Time TempWeatherWind HumidityBarometerVisibility
7:00 PM
Wed, Feb 10
46 °FClear.5 mph53%30.12 "Hg10 mi
6:00 PM50 °FClear.No wind47%30.12 "Hg10 mi
5:00 PM54 °FScattered clouds.5 mph38%30.09 "HgN/A
4:00 PM55 °FScattered clouds.7 mph38%30.09 "HgN/A
3:00 PM54 °FScattered clouds.7 mph38%30.09 "HgN/A
2:00 PM52 °FBroken clouds.7 mph44%30.09 "HgN/A
1:00 PM52 °FBroken clouds.7 mph54%30.09 "HgN/A
12:00 PM52 °FBroken clouds.9 mph54%30.12 "HgN/A
11:00 AM50 °FBroken clouds.12 mph40%30.12 "HgN/A
10:00 AM48 °FBroken clouds.7 mph50%30.15 "HgN/A
9:00 AM45 °FPartly sunny.2 mph57%30.15 "HgN/A
8:00 AM43 °FPartly sunny.No wind57%30.15 "HgN/A
7:00 AM41 °FBroken clouds.No wind61%30.12 "HgN/A
6:00 AM41 °FPassing clouds.No wind61%30.09 "HgN/A
5:00 AM41 °FPassing clouds.No wind66%30.09 "HgN/A
4:00 AM41 °FQuite cool.No wind61%30.12 "HgN/A
3:00 AM43 °FPassing clouds.No wind61%30.12 "HgN/A
2:00 AM45 °FPassing clouds.No wind57%30.12 "HgN/A
1:00 AM45 °FPassing clouds.No wind61%30.15 "HgN/A
12:00 AM43 °FPassing clouds.No wind71%30.15 "HgN/A
11:00 PM
Tue, Feb 9
43 °FPassing clouds.No wind66%30.18 "HgN/A
10:00 PM43 °FPassing clouds.No wind61%30.15 "HgN/A
9:00 PM43 °FPassing clouds.No wind61%30.18 "HgN/A
8:00 PM43 °FPassing clouds.No wind61%30.21 "HgN/A
Weather by CustomWeather, © 2016

See weather overviewHow to use our weather pages